Tracking 20232 objects as of 21-Jan-2020
HD Live streaming from Space Station
objects crossing your sky now

RADUGA 2

Track RADUGA 2 now!
RADUGA 2 is classified as:


NORAD ID: 9416
Int'l Code: 1976-092A
Perigee: 35,668.3 km
Apogee: 35,920.1 km
Inclination: 9.3 °
Period: 1,436.1 minutes
Semi major axis: 42165 km
RCS: 0.1428 m2 (medium)
Launch date: September 11, 1976
Source: Commonwealth of Independent States (former USSR) (CIS)
Launch site: TYURATAM MISSILE AND SPACE COMPLEX (TTMTR)
aabbcc
Your satellite tracking list
Your tracking list is empty




NASA's NSSDC Master Catalog

Two Line Element Set (TLE):
1  9416U 76092A   20020.31959117 +.00000023 +00000-0 +00000-0 0  9999
2  9416 009.2624 302.2080 0029850 334.3896 021.0853 01.00270170105878
Source of the keplerian elements: AFSPC